Погода в Богре

Бангладеш     24°50′51″N   89°21′53″E
темп.,
°C
ветер,
м/с
пор.,
м/с
влажн.,
%
обл.,
%
осадки,
мм/ч
давл.,
гПа
погр.,
м
14 апреля, ср
ср1400:00+27ю47260 0.0 100796
03:00+25ююз410550 0.0 1007201
06:00+24ююз412700 0.0 1008243
09:00+34ююз46372 0.0 10101000
12:00+41юз581456 0.0 10085117
15:00+42зюз57885 0.0 10035103
18:00+37с34105 0.0 100249
21:00+30вюв22218 0.0 100512
15 апреля, чт
чт1500:00+28ююз511217 0.0 1006180
03:00+25ю5136231 0.0 1005309
06:00+26ююз412645 0.0 1005347
09:00+35ююз463036 0.0 10081326
12:00+41юз5615100 0.0 10052418
15:00+43зюз567100 0.0 10015390
18:00+37з338100 0.0 100130
21:00+32ююв4614100 0.0 1004101
16 апреля, пт
пт1600:00+30ююз61250100 0.0 1003376
03:00+27ююз6136440 0.0 1002304
06:00+25вюв478053 0.0 1005140
09:00+35ю44346 0.0 10071052
12:00+41юз451437 0.0 10052745
15:00+43юз66897 0.0 10015125
18:00+39юз610101 0.0 1000316
21:00+28ю6173718 0.0 1005387
17 апреля, сб
сб1700:00+26в464510 0.0 1007115
03:00+25юв6135121 0.0 1006394
06:00+24вюв5106229 0.0 1009278
09:00+32ююв564820 0.0 10101151
12:00+38ю45274 0.0 10082382
15:00+42юз58152 0.0 10034428
18:00+38зсз22165 0.0 100129
21:00+30ю5113514 0.0 1007368
18 апреля, вс
вс1800:00+28в57472 0.0 1007163
03:00+25юв6116533 0.0 1007332
06:00+25вюв59785 0.0 1009372
09:00+32ююв66515 0.0 10101367
12:00+39ю553090 0.0 10072231
15:00+42зюз591565 0.0 10014967
18:00+30ссв49341 0.0 1001261
21:00+30ююв61146100 0.0 1006778